VK4JLM-1 Weather Reports


Display with metric or nautical units.
time (UTC)temp
F
wind
direction
speed
MPH
gust
MPH
rain 1hr
in
rain 24hr
in
rain mn
in
humidity
%
barometer
mb
20260503032816 90 90 1.0 0.0 0.00 0.03 0.01 50 1021.0
20260503030931 84 135 2.0 0.0 0.00 0.03 0.01 59 1021.2
20260503025206 91 135 2.0 0.0 0.00 0.03 0.01 49 1021.4
20260503023536 86 135 1.0 0.0 0.00 0.03 0.01 55 1021.7
20260503021626 87 135 1.0 0.0 0.00 0.03 0.01 53 1022.0
20260503015848 82 45 0.0 0.0 0.00 0.03 0.01 62 1022.3
20260503013941 87 135 1.0 0.0 0.00 0.03 0.01 54 1022.5
20260503012207 82 135 1.0 0.0 0.00 0.03 0.01 64 1023.0
20260503010328 81 0 2.0 0.0 0.00 0.03 0.01 64 1023.2
20260503004501 85 45 1.0 0.0 0.00 0.03 0.01 58 1023.5
20260503002701 86 135 3.0 0.0 0.00 0.03 0.01 57 1023.6
20260503000736 86 180 1.0 0.0 0.00 0.03 0.01 57 1023.9
20260502235007 81 157 2.0 0.0 0.00 0.03 0.01 62 1024.1
20260502233126 85 180 1.0 0.0 0.00 0.04 0.01 56 1024.1
20260502231231 84 180 2.0 0.0 0.00 0.04 0.01 56 1024.3
20260502225331 82 180 0.0 0.0 0.00 0.04 0.01 59 1024.2
20260502223546 82 180 0.0 0.0 0.00 0.04 0.01 56 1024.1
20260502221816 77 180 1.0 0.0 0.00 0.04 0.01 62 1024.0
20260502220016 76 180 0.0 0.0 0.01 0.04 0.01 64 1023.9
20260502214106 69 225 0.0 0.0 0.01 0.04 0.01 76 1023.8
20260502212111 65 225 0.0 0.0 0.01 0.04 0.01 86 1023.7
20260502210316 63 180 0.0 0.0 0.00 0.03 0.00 90 1023.6
20260502204441 62 225 1.0 0.0 0.00 0.03 0.00 93 1023.4
20260502202451 61 225 0.0 0.0 0.00 0.04 0.00 96 1023.3
20260502194716 60 225 0.0 0.0 0.00 0.04 0.00 98 1022.9
20260502193116 61 0 0.0 0.0 0.00 0.04 0.00 97 1022.9
20260502191247 60 225 0.0 0.0 0.00 0.04 0.00 99 1022.9
20260502185416 60 270 0.0 0.0 0.00 0.04 0.00 99 1022.6
20260502183755 61 225 0.0 0.0 0.00 0.04 0.00 97 1022.6
20260502181841 61 270 0.0 0.0 0.00 0.05 0.00 96 1022.7
20260502163006 62 225 0.0 0.0 0.00 0.26 0.00 98 1023.0
20260502161057 61 0 0.0 0.0 0.00 0.34 0.00 100 1023.1
20260502151726 62 0 0.0 0.0 0.00 0.34 0.00 98 1023.5
20260502123501 65 0 0.0 0.0 0.00 0.34 0.34 98 1023.9
20260502121716 66 0 0.0 0.0 0.00 0.34 0.34 94 1024.2
20260502115926 67 180 0.0 0.0 0.00 0.35 0.34 92 1024.4
20260502114311 67 0 0.0 0.0 0.00 0.36 0.34 93 1024.1
20260502112541 67 0 0.0 0.0 0.00 0.36 0.34 93 1024.1
20260502110907 67 0 0.0 0.0 0.00 0.37 0.34 94 1024.1
20260502105311 67 0 0.0 0.0 0.00 0.37 0.34 94 1024.1
20260502070701 71 135 1.0 0.0 0.00 0.70 0.34 86 1022.4
20260502064806 72 135 1.0 0.0 0.00 0.70 0.34 87 1022.1
20260502063029 74 135 1.0 0.0 0.00 0.70 0.34 83 1022.0
20260502061421 73 135 0.0 0.0 0.00 0.70 0.34 84 1022.1
20260502055709 73 135 1.0 0.0 0.00 0.70 0.34 82 1022.1
20260502053941 74 135 1.0 0.0 0.00 0.70 0.34 82 1022.0
20260502052046 74 180 1.0 0.0 0.00 0.70 0.34 79 1022.1
20260502050236 75 135 0.0 0.0 0.00 0.70 0.34 81 1022.3
20260502044616 80 90 2.0 0.0 0.02 0.70 0.34 71 1022.2
20260502042809 83 90 1.0 0.0 0.02 0.70 0.34 64 1022.2
20260502040849 76 180 2.0 0.0 0.02 0.70 0.34 79 1022.3
20260502034916 74 180 1.0 0.0 0.00 0.68 0.31 81 1022.4
20260502033016 77 135 4.0 0.0 0.00 0.68 0.31 77 1022.2